Theta_e
320 319 320 320 320 322 325 325 324 327 326 322 322 323 324 325 324 325 325 326 329 330 332 332 334 334 333 334 333 332 332 334 336 334 336 339 337 337 338 338 339 338 339 340 338 337 336 335 334 333 332 331 330 329 328 325 327 335 340 338 339 340 339 339 338 337 335 332 326 319 315 312 309 311 315 319 318 321 324 324 323 323 324 325 326 323 322 322 319 321 319 313 312 311 312 311 311
320 320 320 320 321 323 326 325 323 325 323 321 322 324 325 324 325 326 325 327 332 333 332 332 333 334 333 333 332 332 333 335 337 338 337 336 337 338 337 338 339 338 339 339 337 336 336 336 334 333 332 331 331 330 329 327 324 329 337 340 339 339 339 338 337 336 333 327 322 318 314 311 309 312 316 319 321 324 323 323 324 322 324 324 323 321 319 319 319 319 317 315 313 311 311 311 312
320 320 320 321 324 325 325 324 322 321 321 321 322 324 325 325 326 326 327 330 333 333 333 333 333 335 333 333 333 333 335 337 337 339 337 335 338 338 337 338 338 339 339 339 337 336 336 335 334 333 332 332 331 330 328 327 325 324 330 338 340 339 338 337 337 334 330 324 320 317 313 311 310 313 319 318 320 325 323 323 322 322 325 324 322 321 322 322 320 318 317 316 313 311 311 311 311
320 320 320 322 325 326 325 325 324 321 320 320 321 324 325 326 326 327 331 332 333 333 333 333 333 335 334 334 335 333 334 338 338 338 337 336 338 337 337 338 338 339 338 339 338 336 336 334 334 334 333 331 329 327 327 326 325 324 324 331 337 339 338 337 336 330 324 322 320 316 313 313 313 316 323 323 321 322 323 323 322 323 324 322 321 321 321 321 319 316 315 314 312 311 312 311 311
320 321 320 322 326 326 326 325 324 322 321 322 321 323 324 326 326 328 333 333 333 333 334 333 334 336 334 333 334 334 335 338 338 338 338 338 339 336 336 338 338 338 337 338 337 336 335 333 333 333 332 329 327 325 325 324 324 324 323 323 327 331 334 334 332 326 320 318 316 315 315 316 316 316 319 320 320 319 321 323 323 322 321 320 320 320 320 319 317 316 314 312 312 311 311 311 311
322 321 322 323 325 325 325 323 322 322 322 324 324 324 324 325 327 330 333 333 333 333 333 333 334 334 333 334 334 335 335 337 339 338 338 339 338 336 336 338 338 338 338 337 336 337 334 331 332 330 329 327 326 325 323 323 322 322 323 322 320 321 322 323 324 321 317 315 314 315 319 321 320 318 315 314 317 319 322 324 322 319 320 321 319 320 321 319 318 316 313 311 311 311 311 311 311
323 323 324 325 325 325 326 325 323 323 323 323 324 325 324 326 328 331 331 331 332 332 332 332 334 331 332 335 334 336 332 334 338 338 338 338 337 337 337 338 338 338 338 337 336 336 331 329 330 328 326 325 325 324 322 321 320 320 320 321 320 319 317 316 316 315 315 314 316 321 326 328 325 321 316 314 315 317 320 321 320 318 319 320 320 321 322 321 319 315 312 311 311 311 311 311 311
324 325 325 325 328 327 328 327 325 325 323 322 323 324 326 328 329 330 330 330 330 330 330 331 332 329 331 332 333 337 332 331 335 335 337 338 338 337 337 337 338 338 338 336 336 335 329 327 327 325 324 323 323 323 321 318 317 317 318 319 319 319 317 315 314 314 315 314 318 326 329 330 328 323 318 315 313 314 316 318 319 318 317 319 321 320 321 320 316 312 311 311 311 311 311 311 311
324 326 326 326 329 329 328 327 326 325 323 322 323 324 327 329 328 329 329 329 328 328 328 330 331 328 330 330 331 337 332 330 331 332 335 338 338 337 338 337 338 338 337 336 335 333 327 325 325 322 323 322 322 323 322 317 314 314 315 316 317 317 315 313 314 315 314 314 320 328 330 330 329 325 320 317 313 313 314 315 317 317 317 319 319 317 318 317 312 311 311 310 311 311 311 311 311
325 328 327 329 329 328 326 327 327 325 323 322 324 325 327 329 328 329 329 328 327 326 328 330 329 327 328 329 332 337 334 329 330 331 334 338 337 336 338 337 337 337 337 336 335 334 328 324 323 321 321 321 321 322 324 320 313 313 314 314 315 315 315 315 316 317 315 317 323 328 331 331 329 326 323 319 314 314 315 314 315 315 314 316 316 314 314 312 310 311 310 311 311 311 311 311 311
327 329 328 329 328 327 327 328 327 325 324 322 324 326 328 329 328 328 328 328 325 325 329 328 328 327 327 327 333 335 331 329 331 332 334 338 336 336 338 337 337 336 336 336 334 335 331 324 323 321 320 321 321 321 324 322 315 313 314 314 316 318 319 319 319 319 317 319 322 326 330 330 330 328 327 325 318 316 316 315 315 313 311 312 312 311 310 310 310 310 310 311 311 311 311 311 311
328 330 330 330 329 329 329 329 328 325 324 322 324 327 329 329 328 327 326 326 324 324 327 327 328 328 325 327 334 333 328 329 333 333 335 338 337 336 338 337 337 336 336 336 335 335 333 328 324 322 320 321 322 321 323 323 318 314 314 314 317 321 321 320 319 319 318 318 319 323 327 328 330 329 329 328 323 319 319 316 314 312 311 311 310 310 310 310 310 310 311 311 311 311 310 311 311
328 330 330 330 331 332 330 328 328 326 324 323 325 327 329 329 328 327 325 325 324 324 326 326 327 326 325 327 330 331 331 330 331 331 335 339 337 337 337 337 336 336 336 335 335 334 334 333 329 325 321 321 322 322 323 323 320 315 314 313 315 316 317 318 320 321 319 317 316 317 323 326 328 329 329 329 326 323 322 317 313 311 311 310 310 310 310 310 310 310 310 311 311 311 311 311 311
328 329 328 330 332 332 331 330 329 326 325 325 327 328 329 329 327 327 326 324 324 325 326 326 325 326 324 323 327 334 337 332 329 329 334 338 338 337 337 337 336 335 336 335 335 335 334 335 333 331 326 323 324 323 323 324 323 319 316 314 312 312 314 317 319 322 319 316 315 313 317 323 326 327 328 328 327 324 321 317 313 312 311 310 310 310 310 310 310 310 310 311 311 311 311 311 311
327 328 328 330 331 331 330 331 330 327 327 327 327 328 329 328 328 327 325 324 325 325 325 324 324 327 323 321 329 335 335 330 328 328 332 337 337 337 337 337 336 336 336 335 336 335 335 335 335 335 332 329 328 327 326 326 325 323 319 315 312 312 314 315 317 321 319 316 315 313 315 318 323 325 325 325 325 323 320 317 314 313 311 310 310 309 310 310 310 310 310 310 310 311 310 311 311
326 326 328 330 330 330 330 331 330 328 328 326 326 328 328 328 327 327 326 325 326 324 323 324 322 325 323 322 326 325 325 325 329 328 329 334 336 337 337 337 337 337 336 335 336 335 335 334 334 335 334 332 331 331 330 329 327 326 322 316 313 312 314 315 315 318 317 316 315 314 314 316 320 321 321 322 322 320 318 318 315 313 311 311 310 310 310 309 310 310 310 310 310 311 311 311 311
326 326 327 329 329 330 331 331 330 328 327 325 325 327 327 327 326 325 326 324 325 324 323 326 323 321 324 324 320 317 318 321 326 329 328 332 334 335 336 336 337 337 336 336 336 335 334 334 334 334 334 333 332 332 332 331 329 327 324 317 314 314 315 316 317 316 316 315 314 314 314 316 320 321 321 322 322 320 318 318 315 312 311 311 310 310 310 310 310 310 310 310 310 312 311 311 311
328 327 328 328 330 331 330 330 329 328 326 324 325 326 326 326 326 324 325 324 325 326 324 326 324 321 323 322 317 317 318 317 321 326 328 329 331 334 335 335 336 336 336 336 336 335 334 334 334 334 334 333 332 332 331 331 330 328 325 320 317 315 315 316 318 317 315 314 313 313 314 317 322 324 324 322 323 321 317 317 314 313 311 311 311 310 310 310 311 310 311 311 312 312 311 314 314
329 329 329 329 331 329 327 328 327 326 324 324 324 325 325 324 325 324 323 324 325 326 325 326 325 323 324 322 318 318 318 318 319 321 324 327 329 330 332 334 335 335 336 335 335 335 335 334 334 333 333 332 332 331 330 331 331 330 327 324 322 319 316 316 319 320 317 316 313 311 315 319 321 323 322 319 320 318 315 315 314 313 311 311 311 310 310 310 311 310 311 311 312 311 314 319 319
330 331 330 330 330 328 326 326 325 323 322 323 323 323 324 324 324 324 323 325 325 325 325 326 326 325 326 325 321 320 318 319 319 318 320 322 326 328 330 333 334 334 334 335 335 335 334 334 334 333 333 333 332 332 330 330 331 330 329 328 327 325 321 317 320 323 321 321 317 313 317 319 319 319 316 312 313 313 313 314 313 312 311 311 310 310 310 310 311 311 311 311 311 313 318 321 321
330 330 330 331 329 328 327 325 323 321 321 321 322 321 322 323 323 324 324 324 325 325 325 326 326 324 326 327 323 321 320 319 319 319 319 319 321 324 329 332 332 332 332 332 333 334 334 334 334 333 334 333 333 332 331 331 331 331 330 330 329 328 326 321 321 324 324 323 319 315 318 317 313 310 309 309 310 311 312 312 312 312 311 311 310 310 310 310 310 310 311 311 312 315 319 322 321
329 328 329 331 328 327 326 323 321 319 319 320 321 321 321 322 322 323 324 323 324 325 324 324 325 324 326 327 323 321 321 320 320 320 319 319 318 318 322 326 327 328 327 326 326 329 331 332 333 333 333 333 332 332 332 332 331 331 331 331 330 329 330 326 322 323 324 322 317 315 317 315 309 308 308 308 310 310 310 310 311 311 311 311 310 310 310 310 310 311 311 311 313 315 318 321 319
328 329 329 330 328 327 325 321 320 318 320 321 321 321 320 321 322 322 323 323 324 324 323 323 324 324 326 327 322 320 321 320 320 320 319 319 318 317 318 320 321 321 320 319 319 321 323 325 328 330 333 333 332 332 332 332 331 331 332 332 330 329 329 327 322 319 317 315 312 312 314 312 309 309 308 307 309 309 310 310 310 310 311 310 311 311 310 310 311 311 311 312 314 315 318 319 318
327 329 330 329 327 328 325 321 319 318 319 320 319 318 319 321 321 322 322 323 323 323 323 322 322 322 322 325 321 319 320 320 320 320 320 319 319 319 318 319 320 320 318 317 317 316 316 315 318 324 329 331 331 331 332 332 332 330 331 330 328 326 326 325 323 318 313 309 309 309 309 310 311 311 309 307 307 309 309 309 310 310 310 310 311 311 311 311 311 311 312 313 313 315 318 319 319
327 328 330 328 326 327 325 321 320 319 319 318 318 319 321 321 320 320 321 321 322 322 323 322 322 321 320 322 322 321 321 320 319 319 320 319 319 320 320 320 320 320 319 318 317 316 315 314 314 317 322 327 329 330 330 331 332 331 329 328 325 323 323 322 322 322 317 311 308 308 308 308 310 311 309 308 307 307 308 309 310 310 310 310 310 311 311 311 311 312 312 313 313 316 319 320 320
328 328 330 328 326 326 324 323 322 321 321 320 320 323 323 321 318 319 320 321 321 321 322 321 321 322 321 321 322 323 324 323 320 319 320 320 319 319 319 319 319 320 320 320 319 317 317 315 314 315 316 322 325 327 328 329 330 330 329 327 325 322 320 320 321 322 320 315 311 308 308 308 309 309 309 308 307 307 307 308 309 310 310 310 310 311 311 311 311 312 313 313 314 315 317 319 320
328 328 330 329 326 325 323 324 324 322 322 321 322 325 326 321 318 321 323 321 321 321 320 320 320 320 321 321 322 323 324 324 323 321 320 319 319 319 319 319 319 319 319 320 320 319 319 318 317 316 315 317 319 321 324 327 328 329 328 327 326 323 320 320 320 320 320 318 316 312 308 308 309 308 309 309 308 307 307 307 308 309 310 310 310 311 311 311 311 312 313 314 315 315 314 318 319
328 328 329 327 325 325 323 324 324 322 322 322 322 323 325 322 319 322 324 322 321 320 321 320 320 320 320 321 322 323 322 322 323 323 320 318 319 319 319 319 318 318 318 319 319 319 319 320 319 318 317 316 316 317 319 322 325 326 327 328 327 325 321 320 320 320 320 319 320 318 313 309 309 309 309 309 308 308 307 307 307 308 309 310 310 311 311 311 312 312 313 313 313 314 313 317 319
327 326 326 326 325 325 324 325 324 323 324 323 322 324 325 324 322 322 324 323 322 321 322 322 322 321 321 322 322 323 322 320 322 322 319 318 318 318 318 318 318 318 318 318 319 320 320 320 320 320 320 318 317 316 316 318 320 324 326 326 326 325 322 320 320 320 320 320 320 321 318 314 311 309 308 308 308 308 308 307 307 307 308 309 309 310 311 311 312 312 312 312 313 313 313 314 316
326 325 326 327 327 326 325 326 325 323 324 322 323 327 328 327 327 326 325 324 324 324 324 324 324 323 323 323 322 323 324 322 321 321 320 320 319 318 319 318 318 318 318 319 319 320 321 320 320 320 320 320 319 318 317 316 318 321 324 325 325 324 323 321 320 321 320 321 320 320 321 318 314 311 309 308 308 308 308 307 307 307 307 308 308 309 310 311 311 312 311 312 312 313 313 313 315
326 327 328 328 328 327 327 327 325 324 324 323 324 327 329 329 330 330 327 325 325 326 325 325 326 325 325 324 323 324 324 324 323 322 322 321 320 320 319 319 319 319 319 319 320 320 321 321 321 320 320 320 320 320 319 318 317 318 320 323 325 325 323 321 320 321 321 321 321 320 320 320 317 313 309 308 308 307 307 307 307 307 307 307 307 308 309 310 310 311 311 312 312 313 313 313 315
326 329 329 329 329 328 328 327 325 325 324 323 324 327 329 329 330 331 329 326 325 326 327 327 327 327 327 327 326 325 324 324 324 323 323 322 322 321 321 320 319 320 319 320 320 321 321 322 322 321 320 320 320 320 320 319 318 317 317 320 324 325 324 322 320 321 321 322 322 321 320 320 319 315 310 308 308 307 307 307 307 307 307 306 307 307 308 309 309 310 310 311 313 313 313 314 315
328 329 329 329 330 329 328 327 326 327 326 324 324 327 329 329 329 329 328 326 326 327 327 327 328 327 327 328 327 326 324 323 323 323 324 324 324 323 322 322 321 321 322 322 322 322 323 323 323 322 320 320 320 320 321 321 320 318 316 317 322 324 324 322 321 320 322 322 322 322 320 319 318 317 313 309 308 308 307 307 307 307 307 307 307 307 307 308 309 309 310 311 312 313 315 315 315
330 330 329 330 330 330 329 327 326 328 327 325 324 326 328 329 329 328 326 326 326 326 327 327 327 327 327 327 327 326 325 324 324 324 325 326 326 326 325 324 325 325 325 325 324 323 323 323 322 322 321 321 321 320 321 321 321 320 318 317 319 322 324 323 321 321 321 322 322 322 321 318 317 317 314 311 309 309 308 307 307 307 307 307 307 307 306 307 308 308 309 310 310 311 313 315 316
331 330 330 330 329 329 330 328 327 327 327 327 326 326 327 327 329 329 328 327 326 326 327 327 327 327 327 327 326 326 326 325 325 325 325 326 326 326 327 327 328 328 326 326 325 323 323 323 322 322 323 324 323 322 321 321 322 322 320 318 316 319 323 324 322 321 321 322 322 322 321 319 316 315 314 312 310 310 309 308 307 307 307 307 307 307 307 306 307 307 307 308 309 309 310 312 315
330 330 330 329 328 328 329 329 327 326 327 327 328 328 327 327 327 328 329 328 327 326 326 327 327 327 327 327 326 326 326 327 326 327 327 327 326 326 327 328 327 327 326 326 325 324 322 322 321 323 324 325 324 324 322 321 321 322 322 320 316 316 321 324 323 322 321 322 323 322 322 319 316 314 314 312 310 310 310 308 308 307 307 307 307 307 307 307 306 307 307 307 308 309 309 310 311
328 329 330 328 328 327 328 327 325 325 327 327 328 328 328 327 327 327 328 328 327 327 327 326 327 327 327 327 327 327 327 327 327 327 327 327 327 327 327 328 327 327 327 326 326 325 323 322 322 323 324 324 324 324 324 322 321 320 321 321 317 314 317 322 324 323 322 322 323 323 323 321 317 314 313 312 311 311 310 309 308 307 307 307 308 307 307 307 307 307 307 306 307 307 308 308 309
326 327 328 327 327 327 327 326 323 323 326 327 327 327 327 327 326 327 328 328 327 328 327 327 326 327 327 327 327 327 327 327 327 327 327 326 326 326 326 327 327 327 326 326 326 326 325 323 322 322 323 323 323 324 325 323 322 320 320 320 319 316 314 317 322 324 324 323 323 324 324 323 320 315 312 312 311 311 311 310 308 308 308 308 308 308 308 308 307 307 308 307 307 307 307 308 307
327 327 327 327 327 327 327 326 324 323 324 326 326 326 326 325 325 326 327 327 327 327 327 327 327 327 327 327 327 327 327 327 327 327 327 326 326 325 325 325 326 326 326 326 326 326 326 325 324 323 323 323 323 324 325 324 323 322 320 319 319 319 317 314 316 321 324 325 324 324 324 324 323 319 314 311 311 311 311 310 309 309 309 310 309 309 309 309 309 309 309 308 308 308 308 308 308
327 327 326 326 326 326 326 324 324 323 323 324 325 325 325 324 324 324 326 326 326 327 327 326 327 327 327 327 327 327 327 327 327 327 327 327 327 326 325 325 325 325 325 326 326 326 326 326 326 325 325 324 324 325 325 324 322 321 320 319 319 321 321 319 316 316 320 324 325 325 324 324 324 323 319 314 311 311 310 310 309 309 310 311 311 310 311 311 311 310 310 310 309 308 309 310 309
327 326 326 326 325 324 324 324 324 323 323 323 324 324 324 324 324 324 324 325 325 326 326 326 326 326 327 327 327 327 326 326 326 326 326 326 327 326 325 325 324 324 324 324 324 325 325 325 325 325 325 325 325 325 325 324 321 320 320 319 320 322 323 322 319 315 315 320 324 326 326 325 324 325 324 320 314 310 310 310 309 309 310 311 312 312 313 312 312 311 311 311 312 311 310 310 310
327 326 325 325 324 324 324 324 324 324 323 323 324 325 324 322 323 324 324 324 325 325 326 326 326 326 327 327 327 327 326 326 325 325 324 324 325 325 325 324 324 323 323 323 323 324 325 325 325 324 325 325 325 325 325 324 321 319 319 319 320 321 322 321 320 316 314 315 319 323 326 326 325 325 325 324 321 315 310 310 310 310 310 311 314 315 315 314 313 313 313 313 314 314 311 309 310
327 326 324 323 323 323 323 323 324 325 323 322 323 325 325 322 321 322 322 323 324 325 326 326 326 326 326 326 326 326 326 326 326 325 324 324 324 324 323 323 323 322 323 323 322 323 323 323 323 323 324 325 325 325 324 324 323 319 318 318 318 318 319 319 318 317 316 314 314 317 321 324 326 326 325 325 325 321 316 311 309 309 310 311 314 316 316 316 316 316 316 315 315 316 314 311 310
325 324 324 324 323 323 324 324 325 324 322 322 322 324 326 324 323 321 321 322 323 324 325 325 326 325 324 324 325 325 325 326 327 327 326 324 323 323 322 322 322 322 322 322 322 322 322 322 322 322 323 324 324 325 325 324 324 321 318 318 318 318 318 318 318 317 318 317 316 315 315 318 322 325 326 326 326 325 323 318 313 310 310 312 314 316 317 318 318 318 318 317 316 316 316 315 313
325 322 322 324 324 324 323 324 325 324 324 326 324 324 327 326 324 323 322 322 322 323 323 324 324 324 324 324 324 324 325 325 325 327 327 324 323 322 321 320 320 321 321 321 320 321 321 321 321 322 322 323 323 324 325 324 324 323 320 318 317 318 318 317 318 317 318 319 319 318 316 315 316 319 322 325 326 327 326 324 320 316 313 314 316 317 318 319 319 319 319 319 318 317 317 318 316
324 322 322 323 324 325 325 326 325 326 327 327 325 324 326 326 323 323 323 322 322 322 322 322 324 324 324 323 324 324 324 325 326 327 325 323 322 321 319 319 319 320 320 320 320 320 321 320 320 321 321 322 322 323 323 323 324 324 323 321 318 317 317 317 317 317 318 318 319 319 319 318 316 316 317 319 323 326 327 327 325 323 320 318 318 319 320 321 320 320 321 321 321 320 319 318 318
322 324 325 324 325 325 327 327 326 328 329 328 325 323 325 326 324 322 323 323 323 323 322 322 324 324 324 323 324 323 323 324 325 325 323 321 321 319 319 319 319 320 320 320 320 320 320 319 319 320 321 321 321 321 322 322 324 324 324 323 321 319 317 317 317 317 318 318 318 319 319 318 318 317 316 315 317 320 324 327 327 327 325 323 321 321 321 321 321 322 322 322 322 321 321 319 319
322 325 325 324 324 324 325 325 326 329 330 327 325 324 324 326 325 322 323 323 323 323 322 322 322 323 324 323 323 323 323 324 324 322 321 320 319 319 319 320 319 319 319 319 319 318 318 318 318 319 320 320 321 321 322 322 323 323 324 325 324 322 320 318 317 317 317 318 318 318 319 319 318 318 318 317 316 315 318 321 324 327 327 326 325 324 323 323 324 325 325 325 324 324 323 322 320
323 323 323 322 323 326 327 327 327 329 329 326 324 324 325 325 324 322 322 322 322 322 322 321 322 322 323 322 322 323 323 324 324 322 320 319 319 319 320 319 319 319 318 318 317 317 317 317 318 319 320 320 320 321 321 321 322 322 323 323 324 324 324 322 320 319 319 318 318 319 319 319 319 319 318 318 317 316 316 316 318 322 324 326 327 327 327 326 327 328 328 328 328 327 326 325 324
322 321 321 322 323 326 328 328 328 328 327 325 323 325 327 324 323 322 322 322 322 323 323 322 323 322 322 322 322 323 322 322 322 321 320 319 320 320 319 319 319 318 317 317 317 317 317 317 317 319 320 320 320 320 321 321 322 322 322 322 322 323 323 322 322 322 321 321 320 320 320 320 320 319 319 319 318 318 318 317 316 317 317 319 323 325 326 327 328 328 328 328 329 329 328 327 327
320 320 321 322 322 325 327 328 327 327 327 325 325 327 327 325 323 322 321 322 323 323 323 323 323 323 323 323 323 323 322 321 321 320 320 320 319 319 319 319 318 318 317 317 317 317 317 317 317 318 319 320 320 320 320 321 322 322 321 321 321 320 321 320 320 321 321 321 321 321 321 321 321 321 320 320 319 319 319 319 319 318 317 317 318 320 322 324 325 326 327 327 327 327 327 327 327
320 320 321 321 323 324 324 324 323 323 324 324 325 326 325 323 322 321 321 321 321 322 323 322 323 322 322 323 323 323 322 321 321 320 320 319 319 319 319 319 318 318 317 317 317 317 317 317 317 318 318 319 320 320 320 320 321 320 320 320 320 320 320 320 320 319 319 319 319 320 320 321 321 322 321 321 321 320 320 320 320 320 320 320 319 320 321 322 322 324 324 324 324 324 325 325 325
321 321 321 322 324 324 322 322 321 321 323 324 324 324 323 322 323 322 321 321 320 321 321 321 322 322 322 322 323 323 321 320 320 320 319 319 319 319 319 319 318 318 318 317 318 318 318 317 317 317 318 318 318 319 320 320 319 320 320 320 320 320 320 320 320 320 319 318 318 319 319 320 321 321 322 323 322 321 321 321 321 321 321 322 322 322 322 322 322 323 323 323 323 323 323 324 323
320 322 321 320 322 323 321 322 323 322 323 324 323 324 324 324 324 322 321 322 321 321 321 321 322 322 322 323 323 322 320 320 320 319 319 318 318 319 319 319 319 318 318 318 318 318 318 317 317 317 318 318 318 318 318 319 319 319 319 319 319 319 320 320 319 320 319 318 318 319 319 319 320 320 321 322 322 322 321 322 322 322 322 323 323 323 323 323 323 324 324 324 323 323 324 324 322
318 321 320 320 322 321 320 321 323 323 323 323 322 323 322 323 323 321 321 322 321 321 321 321 322 321 322 322 322 321 321 322 320 318 318 318 319 319 319 319 319 318 319 319 319 318 318 318 317 317 317 318 318 318 318 318 319 319 318 318 318 318 319 319 319 319 319 319 319 319 319 318 319 319 319 320 321 320 321 321 322 323 323 323 324 324 324 324 324 324 324 324 324 324 324 324 323
318 319 320 321 322 322 321 321 321 321 322 322 322 322 321 321 320 319 321 320 320 321 320 321 321 321 321 321 321 321 322 321 319 318 318 319 319 319 319 319 319 319 319 319 319 318 318 318 318 317 317 317 318 318 317 317 318 319 319 318 318 319 319 319 319 319 318 319 319 318 318 318 318 319 319 319 319 319 320 321 322 322 323 324 324 325 325 324 324 324 325 325 324 324 325 324 323
318 319 320 321 321 321 322 321 320 320 321 321 322 322 320 319 319 319 320 320 320 320 320 320 321 321 320 320 320 320 321 321 319 318 319 319 319 319 319 319 319 319 319 319 319 318 318 319 318 317 317 317 317 317 317 317 317 318 319 319 319 319 319 319 318 318 318 317 318 318 318 318 318 318 319 320 320 320 319 321 322 323 323 323 324 325 325 324 324 325 325 325 324 324 324 324 323
317 317 318 319 319 320 320 321 320 319 319 321 322 322 320 318 318 319 319 320 320 319 320 321 320 320 319 319 319 319 320 320 319 318 318 319 319 319 319 318 319 319 319 319 319 319 318 319 319 319 318 317 317 317 317 317 317 318 319 319 319 319 319 318 318 317 317 317 317 317 318 318 318 318 319 321 323 322 320 320 322 323 323 323 323 324 325 325 325 325 324 325 324 324 324 324 324
Wind_Speed
6 5 6 7 9 12 8 4 5 3 3 3 2 1 4 5 3 4 5 3 2 5 4 2 2 1 1 4 6 6 5 7 7 4 2 2 9 12 11 12 12 12 12 10 9 9 8 7 7 7 6 6 5 5 4 5 5 6 6 7 7 7 7 4 4 3 1 3 4 6 4 2 1 4 6 8 9 9 9 10 10 10 10 10 10 10 10 10 10 10 10 11 12 12 13 14 14
6 6 5 7 8 9 5 3 5 2 3 2 2 2 6 5 3 4 4 2 4 6 4 2 2 3 2 5 6 5 3 8 9 8 5 7 13 11 11 13 12 12 11 10 9 8 8 6 6 7 6 5 4 4 4 4 5 6 7 7 8 8 7 6 5 4 3 4 5 6 3 1 1 4 7 7 8 9 9 10 10 10 10 10 10 9 9 9 10 10 10 11 13 13 13 13 14
7 7 5 7 7 7 5 4 5 3 3 1 4 5 5 4 3 5 5 5 7 6 4 3 2 3 4 5 4 5 4 9 8 9 6 10 13 11 11 13 12 11 10 10 9 8 7 7 6 6 6 4 3 4 3 4 5 7 8 9 9 9 7 6 5 5 6 6 7 5 2 2 2 5 7 7 8 9 9 10 10 10 10 9 9 9 9 9 10 10 10 11 12 13 13 14 14
7 7 5 7 7 7 5 4 3 5 4 1 3 6 4 3 6 7 7 6 6 4 3 3 3 2 5 5 5 5 3 8 7 5 5 9 8 11 13 13 12 10 10 10 9 8 7 8 7 7 6 4 4 4 4 5 6 8 10 11 11 9 8 6 6 7 8 8 8 5 3 2 3 5 7 7 8 9 9 9 9 10 9 9 9 9 9 8 9 9 10 11 12 13 13 14 14
7 7 6 6 8 3 2 3 3 5 3 3 2 5 4 3 6 7 7 6 5 3 2 3 2 2 4 5 5 4 4 6 5 5 7 10 7 12 14 13 13 10 10 10 9 8 8 8 8 8 6 4 2 3 4 5 6 8 10 11 12 11 10 9 9 10 10 10 8 4 3 3 5 5 5 6 8 8 9 9 9 9 8 8 8 8 8 8 9 9 11 11 12 12 13 13 13
8 7 5 5 6 4 3 4 3 3 3 5 3 5 4 4 6 8 7 6 4 2 1 3 1 1 2 2 3 4 3 2 5 7 9 9 9 12 13 13 12 10 9 10 9 8 9 8 8 8 6 4 3 3 4 5 6 8 9 11 12 12 12 12 12 11 11 8 5 3 4 5 5 5 4 4 6 8 8 8 8 8 8 8 7 8 8 8 8 9 10 11 12 12 12 12 12
10 7 4 5 5 3 5 5 4 2 4 4 4 4 3 5 6 8 8 5 3 2 1 2 1 4 2 1 3 3 7 1 4 9 10 8 11 12 13 12 11 11 9 9 9 8 9 8 7 6 6 5 4 4 4 6 7 8 9 11 11 11 12 12 12 11 9 7 3 3 5 5 5 3 3 3 5 7 7 7 7 7 7 7 7 8 7 7 8 8 9 10 11 11 11 11 11
9 7 5 5 4 3 5 5 3 1 4 3 3 4 3 4 5 7 7 4 3 4 3 3 2 6 1 1 2 1 5 4 4 7 11 9 12 12 12 12 10 11 10 10 10 10 9 8 6 5 4 4 4 4 4 6 7 9 10 11 11 11 12 10 11 10 8 7 6 5 6 5 5 2 2 4 4 6 6 6 6 5 6 6 6 7 7 7 6 7 9 10 10 10 10 10 11
7 6 5 5 5 4 4 5 2 0 2 3 4 4 3 3 4 5 5 3 2 2 2 3 3 5 2 0 2 5 2 5 5 5 9 10 12 12 11 12 11 12 11 11 10 10 9 8 6 5 4 3 3 3 3 4 6 8 10 11 10 11 11 9 10 9 8 9 7 7 7 6 6 3 3 4 4 6 5 4 5 4 5 6 6 6 6 5 6 7 9 9 9 9 9 9 10
7 6 4 4 5 5 5 5 2 1 3 4 3 6 7 6 5 4 5 3 2 2 2 1 4 6 4 2 2 5 2 4 3 4 8 11 12 13 11 12 12 12 12 11 11 9 9 9 7 5 4 3 3 2 2 3 6 7 8 10 10 10 9 9 8 7 9 10 9 9 9 7 6 4 4 5 5 5 4 3 4 4 3 4 5 5 5 5 6 7 8 8 8 8 9 9 9
6 5 3 4 5 5 6 5 3 2 3 4 4 7 8 9 7 5 4 3 2 2 2 2 4 5 6 4 2 2 5 4 1 3 8 12 12 12 11 12 11 11 11 11 11 9 9 10 9 7 5 4 3 3 3 3 5 6 8 9 9 8 7 7 6 6 9 11 11 11 10 9 7 5 5 5 6 5 3 4 4 3 3 2 3 3 4 5 5 6 6 6 7 7 8 8 9
6 4 3 5 5 6 5 4 2 3 4 5 6 8 9 10 9 7 6 3 4 3 3 4 2 1 5 3 3 0 5 3 3 5 9 11 11 12 10 11 11 10 11 11 11 10 9 9 10 9 7 6 4 4 4 4 4 5 7 8 8 8 8 6 6 7 9 10 11 12 11 10 8 7 6 6 6 4 4 5 4 4 3 2 1 2 3 3 4 4 5 5 6 6 7 8 8
5 4 3 5 6 6 4 3 1 1 3 6 6 9 10 10 9 7 6 4 5 4 4 5 1 2 4 0 2 1 1 4 4 6 9 10 10 11 11 11 11 11 12 12 12 11 9 8 9 9 9 8 6 6 5 5 5 5 6 7 8 8 8 7 8 9 9 10 10 12 13 11 9 7 7 6 6 5 5 6 5 4 4 3 2 1 1 2 2 3 4 5 5 5 6 7 8
5 5 4 5 5 6 5 5 3 2 5 5 7 10 10 8 7 5 6 5 5 3 4 5 2 3 4 2 3 6 4 5 5 5 7 9 10 10 10 10 11 12 12 11 12 11 10 9 8 9 9 8 8 8 8 7 5 5 5 7 8 7 8 9 9 9 10 9 8 10 11 12 10 8 8 7 7 7 7 6 5 5 4 4 3 2 1 0 1 2 3 4 4 5 6 7 7
6 5 4 5 6 6 5 6 4 4 3 7 9 10 10 5 4 5 5 3 4 5 4 5 5 2 2 1 4 7 4 6 5 6 6 9 9 9 9 9 10 11 11 11 11 11 11 11 9 9 9 8 8 8 8 8 7 6 6 7 8 8 9 10 10 10 9 7 7 9 10 12 12 11 10 9 8 8 8 7 7 6 5 4 4 3 2 1 1 2 2 3 4 5 6 6 7
5 5 5 5 7 6 5 6 4 5 0 8 7 9 9 5 4 5 5 2 3 6 6 4 7 4 2 2 2 2 4 6 6 7 7 8 9 9 9 9 9 10 11 11 12 12 11 11 11 10 10 9 8 8 7 8 8 7 7 7 9 9 10 10 10 10 8 7 7 9 10 11 12 12 11 10 11 10 9 8 8 8 7 6 5 4 3 2 1 2 2 3 4 5 5 5 6
5 5 6 5 7 8 5 6 4 3 1 7 8 8 8 6 6 6 6 6 2 5 6 4 7 7 2 2 3 3 3 5 6 7 7 8 9 9 9 9 9 10 11 11 12 12 11 12 12 12 11 10 10 10 8 8 8 8 8 8 9 10 10 10 10 10 9 9 8 9 9 10 10 9 10 11 11 11 10 9 9 9 9 8 6 5 4 3 3 3 3 4 4 5 5 4 4
6 5 7 7 7 6 3 5 3 2 2 4 7 8 8 5 7 7 5 7 7 5 7 7 8 8 7 8 8 6 4 4 5 7 9 9 10 10 10 10 10 10 10 11 12 12 12 12 13 13 13 12 11 11 10 9 9 8 8 9 10 11 11 10 10 11 10 10 10 9 9 9 8 7 10 11 10 11 11 10 10 10 10 9 7 6 5 4 4 4 4 4 4 5 5 4 4
8 6 6 8 6 1 4 2 2 3 3 3 4 6 7 2 4 7 6 8 10 8 9 10 10 10 10 11 11 10 8 6 5 7 9 10 11 12 12 11 11 11 11 10 10 12 13 12 14 14 13 13 12 12 11 10 10 10 8 9 10 10 12 11 11 11 11 11 11 10 9 8 7 8 11 11 11 11 11 11 11 11 11 9 8 8 7 6 6 5 4 4 4 6 5 3 3
10 9 7 8 6 2 2 1 2 3 4 3 0 2 6 4 1 5 7 8 9 9 9 10 11 11 12 12 12 13 12 9 8 7 9 11 12 13 13 12 12 12 11 10 9 11 13 13 14 14 14 13 13 13 12 10 10 10 8 8 9 9 11 12 12 12 11 12 11 11 9 9 10 12 13 12 12 12 11 13 12 12 12 11 10 9 9 8 7 6 5 5 6 5 2 1 2
9 8 9 7 3 4 2 1 1 3 3 4 1 1 5 6 3 5 7 8 7 10 10 10 9 8 12 13 10 12 13 13 12 10 10 11 12 13 14 14 14 13 12 12 11 11 12 13 13 14 15 14 13 13 12 11 10 10 9 8 8 9 10 11 12 12 13 13 13 12 10 12 14 14 14 12 13 14 14 14 14 14 13 12 11 11 10 10 8 8 7 6 6 4 1 1 1
8 8 14 12 5 4 1 2 1 2 1 3 3 3 4 2 5 8 10 9 3 2 4 6 5 3 8 12 10 10 13 14 14 14 12 11 11 12 13 14 14 14 15 14 13 13 12 13 13 14 15 14 14 14 12 11 11 10 10 9 9 9 8 9 11 12 14 14 14 13 12 15 16 16 16 14 14 15 15 15 14 15 14 13 12 12 11 11 10 9 8 6 5 3 2 3 2
9 10 14 15 9 6 1 2 1 0 2 4 4 3 3 4 8 9 11 14 6 4 2 2 3 3 7 9 10 10 12 14 14 14 13 12 12 11 11 13 13 14 15 15 15 15 15 14 15 15 15 16 16 14 13 12 12 12 10 10 11 10 9 10 12 13 15 16 16 15 16 17 18 18 19 17 16 16 16 15 15 15 15 14 13 13 13 12 11 10 9 7 5 4 4 4 3
10 10 12 12 9 10 4 1 1 1 3 3 3 3 5 8 7 5 8 15 13 9 8 6 5 6 7 8 9 10 10 12 13 12 12 13 12 12 12 13 13 14 14 15 14 16 16 16 16 16 17 18 18 16 15 13 12 13 12 13 14 14 13 12 13 13 15 17 17 17 17 18 17 18 19 18 17 17 16 16 16 16 15 14 14 14 14 13 12 12 10 8 7 6 5 4 3
13 12 12 8 6 10 6 3 3 4 5 3 3 6 9 9 6 6 11 15 13 11 13 13 11 9 9 9 9 10 11 12 13 13 14 13 13 14 15 15 16 16 16 15 14 14 15 15 15 16 18 19 19 17 17 16 14 15 16 16 17 18 18 16 15 15 16 17 18 18 18 18 17 17 18 18 18 18 17 16 16 15 15 15 15 15 15 14 14 13 12 10 9 6 5 4 4
13 15 16 10 7 10 6 6 7 7 7 5 6 10 11 8 6 10 15 18 14 9 10 13 14 13 13 12 11 12 12 13 13 14 14 15 15 16 16 16 17 18 18 18 17 15 14 14 14 14 17 18 20 20 20 19 17 17 18 18 18 21 21 20 19 18 17 18 19 19 19 18 17 17 18 18 19 18 17 16 15 15 15 16 16 16 16 16 15 14 13 11 10 8 6 6 6
8 15 18 12 9 8 7 8 9 7 8 8 8 12 11 7 6 9 11 13 12 10 11 12 13 15 15 14 13 13 14 14 14 14 14 16 17 17 17 17 17 18 19 19 19 17 16 15 14 14 16 17 19 20 21 22 21 20 20 19 19 22 23 21 21 20 19 19 19 20 20 18 18 18 18 18 19 18 18 17 16 16 16 17 17 17 17 17 16 15 14 13 11 11 9 7 6
5 10 13 11 8 8 8 9 9 7 7 9 9 11 12 8 8 12 10 8 8 9 12 12 13 14 14 14 13 14 16 15 14 15 17 18 18 18 18 18 18 17 18 18 18 18 17 17 17 16 16 18 19 20 21 22 23 23 23 21 20 22 23 22 22 21 21 21 20 21 21 20 19 20 19 19 19 18 18 18 18 18 17 18 18 18 19 17 16 17 17 15 14 13 11 9 8
6 7 8 10 10 10 12 11 11 9 6 7 5 8 13 12 13 17 16 14 12 12 13 12 12 13 14 15 14 15 17 16 16 17 19 19 20 21 21 19 19 19 18 17 17 18 18 17 18 18 18 19 20 20 20 21 23 24 25 24 24 24 24 23 23 23 22 22 22 22 22 22 21 21 20 20 20 19 19 19 19 20 19 19 19 19 19 18 18 19 19 17 15 15 13 12 12
8 8 8 9 9 10 14 15 12 11 8 7 5 7 10 13 17 19 21 22 19 18 18 16 16 16 15 16 16 17 17 19 21 21 20 19 20 22 23 22 20 20 19 19 19 18 18 18 19 20 19 20 21 21 20 20 21 23 25 26 27 27 26 25 24 23 23 23 23 22 23 24 23 22 22 21 21 20 20 20 20 20 20 21 21 20 20 20 20 20 20 18 17 17 15 14 13
8 9 9 8 9 9 12 16 14 11 9 9 8 9 9 10 13 13 14 18 19 19 19 18 18 19 18 18 17 18 17 20 23 23 23 22 22 23 23 22 21 21 20 21 21 20 20 21 21 21 21 21 22 23 22 21 21 22 24 25 27 28 28 27 26 24 23 24 23 22 23 24 24 24 23 22 22 21 21 22 21 22 22 22 22 22 21 21 21 21 20 19 18 17 16 16 14
7 9 9 8 10 8 6 12 15 12 8 11 10 7 9 13 15 13 10 13 15 17 18 18 18 19 19 19 18 17 15 16 19 23 25 25 25 25 25 24 22 22 23 24 25 26 25 24 24 23 22 22 23 23 24 23 23 23 23 24 26 28 29 28 27 25 24 25 25 24 23 23 24 25 25 24 23 23 23 23 22 23 23 22 23 23 23 22 23 22 21 20 19 18 18 17 16
8 10 10 9 11 9 5 8 14 14 8 11 13 8 8 9 8 8 7 10 12 14 15 15 16 17 17 17 17 15 14 15 17 21 24 26 26 26 26 25 24 24 25 26 28 30 29 27 26 25 24 23 23 25 25 24 25 24 24 24 26 28 29 29 28 27 26 26 26 25 23 23 25 25 26 26 25 25 24 23 23 24 24 23 24 24 23 23 23 22 22 22 21 20 19 19 18
9 10 11 10 11 11 9 6 10 14 11 12 14 12 13 12 7 4 5 8 10 12 13 13 15 16 16 16 16 15 15 16 17 18 21 22 23 24 25 24 24 24 26 28 29 30 30 28 27 26 23 23 24 26 27 27 26 26 26 25 26 27 29 30 30 29 29 28 27 25 24 24 25 26 27 27 27 27 26 25 25 25 25 25 25 25 24 23 24 23 23 23 23 22 22 21 20
12 12 10 8 7 9 12 8 8 14 13 13 15 13 15 18 17 14 12 11 11 14 16 16 17 17 18 18 17 17 17 18 18 18 20 19 18 21 25 25 26 27 28 30 30 30 29 28 28 26 23 22 24 26 28 29 29 29 28 27 27 28 30 31 31 31 31 30 29 27 25 25 26 27 28 29 29 29 28 27 27 27 27 26 26 25 25 25 24 24 24 24 24 24 24 23 22
14 13 9 10 9 9 14 9 6 12 13 13 15 14 13 16 17 18 18 15 14 16 17 18 18 18 19 19 19 19 19 21 20 20 23 22 20 23 28 29 29 29 28 29 30 29 28 28 29 28 26 23 24 27 29 31 32 32 32 30 29 29 30 32 32 33 33 32 31 29 28 27 27 28 29 30 31 31 30 29 28 29 28 28 27 26 26 25 24 24 24 24 25 25 24 23 23
10 10 10 12 12 10 14 9 6 7 9 11 13 14 14 15 16 16 18 18 17 17 17 18 20 19 19 20 20 21 22 23 21 22 25 27 27 27 29 29 29 29 28 29 31 31 30 29 31 31 30 27 28 29 30 32 34 35 34 32 31 31 31 32 33 34 34 34 33 32 30 29 28 30 30 31 32 33 32 31 30 30 30 29 27 26 26 25 25 25 24 25 25 24 25 24 23
9 10 10 11 11 11 13 8 7 4 5 9 11 13 15 15 16 17 17 17 17 19 19 21 22 21 20 20 22 22 21 21 20 22 25 28 31 30 29 29 29 30 29 29 30 32 32 31 33 34 34 34 33 32 32 33 34 36 36 34 32 31 30 31 32 34 35 34 34 34 32 31 31 31 31 32 33 33 33 33 32 32 31 30 28 27 26 26 26 26 25 26 25 24 25 25 24
10 9 8 8 9 9 8 4 6 5 3 8 11 13 14 14 16 18 19 18 18 21 23 23 24 22 21 21 21 21 20 20 21 21 22 26 29 30 30 29 28 29 29 30 30 30 31 33 34 35 36 38 38 36 35 35 34 35 37 36 34 32 31 31 31 32 34 35 36 35 35 34 34 33 32 33 34 34 34 34 34 33 33 31 30 28 28 28 27 27 26 26 26 25 25 25 26
8 8 9 9 9 10 8 5 7 7 5 8 10 10 11 12 15 18 20 23 22 23 25 26 25 23 23 24 23 22 22 23 22 22 23 24 23 26 31 29 25 25 26 28 30 31 31 32 33 35 36 38 39 38 36 34 33 34 36 37 35 33 32 31 31 32 33 36 37 37 37 37 36 36 34 33 34 35 36 35 35 35 34 33 32 31 30 29 28 27 27 26 26 27 26 25 26
8 9 10 10 11 12 9 3 4 6 8 9 8 9 10 11 15 16 17 22 23 25 27 27 27 25 24 25 25 24 26 28 27 26 27 26 23 25 29 29 28 26 26 26 28 30 32 32 32 33 34 36 38 37 35 33 33 34 36 37 37 35 32 33 34 34 34 35 38 39 39 39 38 38 37 35 35 36 36 36 36 36 36 35 34 33 32 31 30 29 28 28 27 27 27 27 27
7 9 11 13 13 13 9 5 3 6 9 8 6 8 8 7 13 14 12 14 17 21 24 23 24 22 21 22 22 22 24 27 28 29 29 27 26 26 27 29 30 29 26 24 23 26 29 31 32 33 33 33 35 36 35 33 33 35 37 38 39 38 37 38 38 36 35 35 36 38 39 39 39 39 39 38 37 37 37 38 38 38 37 37 37 35 33 33 32 30 29 29 28 27 27 28 29
7 6 10 16 17 14 11 9 6 7 9 4 6 7 9 6 10 12 10 10 12 12 14 17 18 17 16 18 19 19 20 21 24 27 28 27 25 25 26 26 28 27 24 22 21 21 23 26 28 30 32 33 34 35 35 34 34 35 36 38 40 41 41 41 39 37 36 36 36 37 38 39 40 40 41 41 40 39 39 39 39 39 39 39 39 37 36 35 34 32 31 31 30 28 28 30 31
6 5 5 12 18 17 14 11 8 8 9 5 7 7 10 10 9 11 12 13 13 11 11 13 16 17 18 19 21 22 23 22 21 20 22 24 22 20 19 19 20 21 18 17 17 18 20 23 26 27 29 32 34 35 35 36 36 36 36 37 40 42 42 41 39 38 38 38 38 37 37 38 39 40 41 41 42 41 41 40 40 40 40 40 40 39 38 37 36 35 34 33 32 31 31 31 31
1 8 9 5 9 14 14 11 9 8 9 9 9 8 9 11 7 7 12 15 17 15 14 14 16 17 19 20 21 22 23 22 18 15 16 20 20 16 17 19 20 19 18 18 19 19 19 21 25 27 28 30 32 34 36 37 37 37 37 37 39 41 42 41 40 40 40 40 40 40 39 39 39 39 40 41 42 42 42 42 41 41 41 41 41 41 40 39 38 37 37 36 35 34 33 33 33
2 4 6 7 6 7 8 8 8 8 8 10 12 10 10 11 6 6 9 12 15 14 13 12 12 15 18 18 18 18 19 18 14 14 16 18 19 19 22 24 23 22 23 24 23 21 20 21 23 25 28 30 32 33 35 37 38 38 38 38 40 41 41 41 41 40 41 41 41 41 41 41 40 39 40 41 41 42 42 43 43 42 42 42 42 42 41 40 40 39 39 39 38 37 36 36 36
4 4 4 5 5 3 3 4 5 6 8 12 15 14 12 11 7 5 8 9 9 9 8 6 9 14 16 16 16 16 17 15 13 16 20 21 23 26 26 23 21 21 21 21 21 21 22 22 22 23 25 28 31 33 34 34 36 39 40 40 40 40 41 42 42 42 42 43 42 42 41 41 41 41 41 41 41 42 42 43 44 43 42 43 43 43 43 42 41 41 40 40 39 40 39 39 39
4 3 2 2 3 1 1 2 4 6 8 10 15 16 15 14 7 3 6 7 6 6 6 5 8 12 13 15 17 16 15 14 15 20 25 26 27 27 25 23 22 20 20 19 20 20 20 20 22 24 24 25 28 32 33 34 34 37 40 41 41 41 41 42 43 43 43 44 44 43 42 42 41 41 42 42 42 41 42 43 44 44 44 44 45 45 44 43 42 42 42 40 40 41 41 41 42
4 4 4 1 2 3 3 4 4 6 5 3 7 13 13 14 13 10 11 10 8 8 9 11 13 14 17 20 19 15 14 14 15 21 25 25 25 25 24 24 22 20 20 20 18 17 17 17 19 23 26 25 26 29 32 34 35 36 37 39 41 42 43 44 45 45 45 46 47 46 46 45 43 42 42 42 42 41 42 42 43 45 46 45 46 46 45 45 44 43 42 41 41 41 41 42 44
10 9 9 6 4 4 5 6 3 5 7 4 5 9 7 8 12 15 18 18 19 20 18 18 19 20 22 21 17 14 16 18 20 22 24 23 22 22 22 21 20 19 18 17 16 15 16 17 17 19 23 25 25 27 29 33 35 36 35 36 37 39 41 43 44 46 47 48 48 49 49 48 46 45 43 41 41 40 41 41 41 43 44 44 45 45 45 45 45 45 43 41 41 41 39 40 41
10 8 7 6 5 4 3 3 2 3 5 5 6 6 6 6 3 2 6 12 20 24 21 20 21 20 20 17 14 15 17 20 21 22 21 19 20 20 20 20 19 19 18 15 14 14 17 19 18 18 20 24 26 27 29 31 34 35 35 34 34 33 34 37 40 43 45 47 48 49 50 49 48 47 46 44 43 43 42 41 39 40 40 41 43 43 44 44 44 44 43 41 41 40 39 39 40
5 4 5 7 6 3 1 1 1 1 3 2 5 4 4 6 4 1 1 2 7 12 13 15 17 17 16 14 13 14 17 19 20 19 18 16 19 21 22 21 20 20 19 16 15 17 19 20 20 20 20 22 26 28 29 31 32 32 32 32 31 30 30 33 36 38 41 44 45 46 48 49 49 48 47 47 46 46 45 42 40 39 38 39 40 41 42 42 40 40 41 41 42 42 41 41 42
4 5 7 4 1 3 1 2 1 1 3 3 4 4 5 8 10 11 11 8 7 8 11 15 17 14 13 13 13 15 17 18 18 17 15 18 21 22 22 23 22 22 20 17 19 22 23 22 21 21 21 21 23 27 30 31 32 34 34 34 34 34 33 34 35 35 36 39 41 43 44 46 48 48 47 46 46 47 46 44 43 41 40 39 39 39 40 39 37 37 38 40 41 42 42 43 44
4 6 6 4 5 3 1 3 2 2 4 3 3 7 8 8 7 6 9 13 13 12 13 16 15 11 11 12 13 13 15 16 16 16 17 21 23 21 21 23 24 25 22 20 22 25 25 24 23 22 22 20 19 21 25 27 31 35 38 40 40 39 36 34 32 32 33 35 37 39 41 42 44 45 45 44 45 47 46 45 44 43 42 41 39 39 39 39 38 38 38 39 40 41 41 43 43
1 3 6 5 1 2 4 3 3 4 5 3 4 8 8 9 8 4 3 7 9 11 12 12 10 9 9 9 10 11 12 12 14 19 22 23 21 20 21 22 24 25 24 24 27 27 24 22 22 22 22 21 20 20 22 25 27 30 33 35 37 35 33 31 29 29 31 33 34 36 38 40 40 41 42 42 44 45 45 44 44 44 43 42 40 39 39 40 40 40 39 39 40 41 42 43 43
1 1 4 3 1 1 4 4 1 2 4 4 4 6 6 8 11 11 12 11 11 12 10 9 9 8 7 8 9 9 8 10 17 23 23 21 20 20 21 23 24 24 25 27 28 26 23 21 21 21 22 23 23 25 27 28 27 26 26 26 27 27 28 29 29 30 31 32 33 35 37 38 38 39 40 41 42 42 42 42 43 44 44 43 41 40 40 41 40 40 39 39 41 41 43 44 43
7 6 7 6 3 1 1 2 2 2 4 4 4 6 7 7 8 11 14 15 14 12 10 8 8 7 7 8 8 8 9 12 18 21 20 20 20 19 22 24 23 24 26 27 27 25 23 25 26 24 22 22 24 28 30 30 28 26 25 24 24 25 27 30 31 32 32 33 33 34 36 37 38 37 38 39 40 41 41 41 42 43 43 43 41 41 41 41 39 39 39 40 41 42 43 44 43
11 9 9 9 7 4 3 5 5 3 4 5 5 6 8 7 6 8 9 8 8 8 8 7 7 7 8 8 10 12 12 12 15 18 19 19 19 20 23 24 23 24 25 26 27 28 26 26 28 28 27 26 25 27 28 28 27 27 27 27 27 29 30 32 33 32 32 32 32 32 33 35 36 36 36 35 35 37 39 39 40 41 41 41 40 40 40 40 39 39 39 40 41 42 43 43 43
Wind_Direction
323 317 323 322 330 332 313 280 275 213 257 276 77 109 107 73 88 136 137 132 146 116 85 73 102 150 48 353 341 347 350 6 16 27 59 133 142 147 146 149 165 156 150 159 165 172 176 175 170 168 165 162 153 148 154 160 162 163 164 165 169 170 164 174 212 211 255 297 323 335 328 299 152 131 119 115 114 114 113 111 114 110 104 103 100 98 95 93 91 87 81 77 77 75 71 68 67
327 322 323 320 325 318 302 276 284 227 249 240 107 54 100 115 168 151 129 101 61 87 111 116 156 201 310 328 307 297 32 47 47 70 95 144 140 151 153 148 157 151 150 156 157 169 176 179 182 174 171 177 180 178 174 175 175 177 179 179 184 188 180 182 213 236 276 303 327 334 310 243 147 128 117 116 117 113 114 113 113 110 106 104 101 96 92 91 89 87 80 76 76 72 67 65 63
332 330 328 325 309 280 282 251 267 281 267 255 104 91 113 148 143 111 85 66 65 86 120 117 175 199 251 263 305 309 80 74 70 82 108 138 145 163 153 149 153 151 152 151 157 168 178 182 189 184 180 194 224 232 213 199 190 192 195 194 198 205 198 192 227 263 286 303 318 324 285 224 166 130 116 118 118 116 118 115 113 108 105 102 99 96 93 92 92 89 83 77 72 66 62 60 59
338 337 333 325 291 252 265 248 272 295 279 338 84 110 130 135 109 95 81 76 80 101 124 149 180 181 251 281 344 314 82 82 80 80 120 134 172 182 151 153 153 155 155 151 160 166 186 183 185 191 184 202 244 250 229 217 206 205 207 207 215 222 220 217 246 273 285 294 303 304 266 206 136 121 119 123 121 122 120 115 112 108 108 106 101 98 96 94 91 85 79 73 67 62 58 56 56
339 337 336 322 289 274 293 272 272 272 306 0 53 109 122 97 108 108 102 101 100 109 111 196 169 130 243 290 317 317 62 83 85 93 124 129 192 191 155 153 153 159 158 153 162 170 196 189 183 188 182 192 223 236 219 215 216 216 217 218 223 231 240 246 256 269 280 287 292 278 221 147 119 112 122 128 126 130 123 118 117 114 113 107 102 98 95 89 83 78 71 66 64 61 57 55 54
340 328 328 307 285 315 282 254 247 239 28 3 27 87 105 90 117 122 120 116 113 113 79 221 223 6 209 228 263 318 337 73 77 106 130 142 168 172 158 154 154 159 160 159 165 180 201 192 187 184 177 183 179 196 201 206 217 224 226 227 228 232 242 249 255 262 273 281 277 221 164 134 120 112 125 135 131 135 129 126 125 120 113 105 101 96 95 89 79 74 70 64 61 58 55 54 53
337 327 316 281 253 259 261 257 273 256 69 25 34 67 91 97 125 131 142 142 146 166 185 207 305 286 207 149 204 261 276 257 103 135 138 161 159 158 160 154 157 161 165 163 167 191 201 190 190 187 180 181 170 169 185 204 212 222 229 233 233 234 240 244 250 254 261 258 215 155 135 138 144 123 132 153 144 139 134 129 123 119 114 107 103 98 97 89 79 72 68 65 59 56 53 52 52
321 319 307 287 251 210 259 266 272 313 74 76 72 63 61 108 146 151 163 159 164 169 191 199 251 266 133 46 215 110 283 252 217 170 141 157 163 164 160 155 161 164 171 167 172 193 196 190 191 195 193 184 176 169 179 203 206 213 220 228 232 234 240 241 243 246 242 219 181 153 141 160 184 178 169 176 166 148 134 129 123 121 118 111 105 100 97 89 79 67 62 61 56 53 51 50 50
296 282 273 274 263 233 251 257 244 292 126 131 121 112 101 140 170 178 176 152 159 178 197 188 218 260 48 257 195 96 300 263 252 215 154 156 166 168 158 161 169 170 176 172 179 192 191 190 193 198 202 206 200 182 182 197 194 202 213 221 228 232 239 238 237 235 215 193 171 162 160 177 208 228 209 188 167 144 131 133 131 125 121 115 112 104 97 86 67 59 55 54 52 50 48 47 47
286 247 270 283 265 257 242 241 213 160 158 147 132 140 151 161 178 198 190 166 149 194 157 124 233 256 312 298 148 116 275 290 268 238 168 164 173 170 162 168 174 178 181 178 180 188 192 187 192 198 198 217 222 213 207 205 187 187 203 214 224 231 234 229 227 211 189 182 168 165 168 175 200 221 202 189 171 152 146 157 150 139 129 116 111 103 93 74 56 54 51 50 50 46 44 43 43
284 229 259 279 254 252 248 243 194 162 157 161 153 149 158 161 174 191 193 174 154 214 141 162 242 251 270 272 108 143 282 306 242 225 170 174 181 170 168 173 179 183 185 188 180 185 198 191 193 199 198 209 224 235 235 231 203 185 196 208 215 220 223 220 213 190 179 182 175 169 171 174 180 189 188 191 188 175 172 177 172 168 156 125 106 96 81 66 55 53 49 49 47 40 40 38 37
279 249 227 249 250 250 259 287 204 159 165 183 172 156 163 165 174 182 188 181 167 210 185 195 271 351 253 230 104 96 290 281 197 203 167 170 182 172 172 178 182 184 191 193 182 187 200 201 202 203 202 201 211 228 238 244 230 207 202 207 207 210 218 218 209 200 189 186 186 181 177 177 177 182 186 198 208 203 192 190 191 195 187 164 120 94 78 65 56 51 46 44 41 36 34 32 32
268 286 263 251 256 260 276 310 289 151 207 204 169 155 165 171 181 184 182 180 172 196 169 182 269 304 269 218 109 104 257 243 226 209 171 167 185 177 174 185 186 185 195 192 186 193 194 205 216 215 209 204 211 216 228 238 241 235 222 219 214 215 220 215 211 207 200 191 192 195 188 182 181 183 190 203 222 223 203 199 205 208 202 195 189 142 98 71 54 41 38 36 32 31 28 28 29
260 284 280 266 255 262 275 267 250 250 237 178 135 148 166 177 191 187 175 183 171 165 148 166 214 253 268 253 146 119 154 234 251 226 184 172 186 183 177 188 191 190 197 192 192 198 194 203 215 224 222 215 217 215 221 223 231 242 241 239 229 223 220 216 215 211 204 195 194 202 198 192 191 191 196 199 209 221 221 219 220 220 216 212 211 202 176 94 39 26 25 24 19 20 23 24 25
262 279 265 264 262 258 246 245 254 262 236 125 127 151 168 180 183 185 194 201 127 145 184 188 205 219 312 311 95 109 188 248 252 244 211 181 186 187 185 192 195 198 203 198 200 202 198 205 208 218 226 222 219 223 226 219 220 232 242 246 240 228 219 221 219 215 208 200 197 202 205 203 203 207 211 213 216 226 233 228 223 225 227 224 229 230 224 239 335 0 0 2 5 10 16 19 20
264 284 252 247 257 257 226 229 243 251 196 106 135 155 171 183 172 198 209 221 109 165 212 198 204 218 2 3 73 119 245 255 242 249 235 197 191 190 195 201 200 206 211 206 208 210 204 208 212 215 221 218 215 225 234 229 222 224 232 235 239 231 221 224 221 220 217 207 199 199 209 210 211 218 223 228 230 231 230 226 224 224 227 226 233 238 244 258 292 319 327 340 350 359 7 12 16
255 265 247 243 240 248 233 221 223 250 50 109 148 163 186 183 173 215 210 221 211 177 202 201 209 216 245 247 225 241 259 255 243 241 236 211 198 196 202 206 206 211 217 215 213 218 215 213 217 217 219 215 210 216 227 237 233 225 228 227 231 231 227 226 220 221 221 214 205 200 208 213 219 225 231 233 230 229 223 224 226 225 227 227 233 239 251 267 273 288 303 322 339 345 346 351 5
236 238 240 244 236 245 257 236 233 299 342 115 159 184 213 188 169 201 205 220 220 196 200 207 222 221 230 239 230 234 242 248 245 235 236 226 211 208 210 213 214 214 220 221 217 221 223 223 225 223 221 218 211 212 216 228 239 237 234 231 228 230 232 230 224 222 222 221 216 211 210 215 220 223 231 230 227 225 218 219 222 224 229 228 233 238 243 251 258 271 286 309 325 326 328 332 340
229 240 243 242 246 299 45 336 336 338 346 63 156 201 231 232 149 184 208 221 207 213 211 203 225 227 227 240 235 231 238 243 242 239 239 236 229 226 225 222 220 219 221 223 222 222 222 226 229 227 225 223 216 215 217 218 233 240 234 231 230 232 233 229 229 227 224 224 222 220 217 217 215 219 231 230 229 228 217 218 222 226 230 230 233 235 239 243 251 265 278 296 304 313 330 346 339
229 235 246 244 256 295 67 330 2 20 358 6 128 204 241 258 104 175 221 237 211 224 221 200 216 219 218 233 240 235 238 243 241 241 239 241 239 235 233 228 229 231 227 224 225 224 221 222 226 228 227 225 220 219 222 219 226 234 228 226 228 232 233 227 226 228 226 223 222 223 220 223 221 226 236 237 241 240 228 224 224 228 232 232 233 236 241 243 250 261 271 287 296 314 345 4 349
225 225 246 255 289 279 222 167 70 41 353 327 338 286 253 242 219 210 234 247 225 233 231 212 217 217 207 215 237 240 240 247 247 244 241 242 242 239 235 230 235 238 237 233 230 228 223 223 225 227 228 225 222 222 225 221 220 226 223 221 219 226 232 228 223 225 228 225 224 224 223 230 230 233 239 237 240 242 237 232 226 228 232 233 234 238 243 245 250 256 265 282 294 313 1 259 237
234 232 247 259 291 280 218 106 94 54 345 292 267 261 270 241 235 235 237 242 245 288 239 218 227 218 183 198 231 240 237 246 248 249 245 242 242 242 239 236 240 243 246 248 244 240 231 226 226 228 231 229 225 224 228 227 223 223 222 220 217 220 225 228 226 224 229 230 231 229 230 237 238 239 241 235 233 237 239 237 231 229 232 234 234 239 243 245 249 254 262 272 282 291 252 248 251
232 235 240 250 259 260 311 78 162 84 251 257 261 288 300 270 257 243 234 240 259 358 327 204 214 208 178 195 232 237 237 245 247 252 252 248 244 242 242 241 245 248 255 258 255 253 247 242 237 233 232 233 231 225 227 231 229 226 223 223 225 223 220 228 234 235 237 238 236 234 236 242 244 241 239 236 233 235 237 237 236 233 234 234 232 236 241 245 247 250 257 261 264 270 255 258 284
227 240 240 241 243 247 254 124 161 217 239 252 278 303 272 257 262 248 240 246 253 271 267 256 246 234 212 206 232 243 246 250 250 252 253 255 254 251 250 248 247 249 254 258 259 260 260 261 253 242 236 237 237 230 226 227 228 231 228 229 234 235 233 233 241 245 245 244 241 239 238 241 244 242 239 237 234 235 235 234 235 235 235 235 233 234 238 242 244 248 252 255 259 263 264 271 285
225 240 246 236 232 241 233 206 215 230 236 253 258 264 260 252 268 270 259 259 256 255 257 260 259 250 237 226 234 247 252 257 256 251 248 250 253 252 250 248 247 248 251 256 262 264 267 269 263 253 245 242 240 236 233 229 228 232 233 235 240 244 246 243 244 247 248 247 244 241 240 240 242 244 243 240 237 238 237 236 237 238 239 237 236 236 237 241 243 249 251 253 259 254 253 262 263
220 227 239 234 232 233 217 220 227 229 234 238 240 253 257 240 255 268 255 257 257 243 242 253 256 252 250 248 242 242 245 252 257 255 253 252 250 249 249 248 248 250 252 255 259 263 265 267 267 262 255 249 246 243 239 235 232 233 237 239 242 247 250 249 246 246 249 249 246 243 242 241 243 245 246 243 242 242 242 241 240 240 240 239 239 238 237 241 244 249 252 253 257 254 249 250 253
219 222 233 235 239 224 206 228 229 224 232 233 238 253 253 212 219 257 246 248 248 236 238 243 249 250 250 252 247 242 241 241 248 252 254 255 254 251 249 249 251 254 256 257 260 262 263 265 266 264 258 255 254 252 247 243 240 238 241 241 241 246 248 248 247 246 247 248 249 248 245 242 243 245 246 246 245 245 246 244 242 240 239 239 240 240 239 240 243 246 248 248 250 256 258 254 252
233 223 228 227 232 226 214 227 225 222 229 223 236 261 255 216 215 245 243 238 229 229 242 237 239 247 246 249 247 246 250 247 240 242 249 255 258 258 254 255 259 261 261 263 265 265 265 265 265 263 257 254 255 255 253 250 247 245 244 242 240 244 247 246 247 246 245 246 248 250 250 246 245 246 246 247 247 245 245 244 243 241 239 240 240 240 241 241 241 242 245 247 248 255 256 251 254
230 217 225 225 227 233 221 220 217 219 227 204 225 268 251 232 233 240 235 233 229 230 242 239 238 244 243 247 245 244 254 256 245 246 255 259 261 263 262 262 265 267 266 264 262 262 263 262 262 262 258 255 256 257 255 254 252 249 246 244 244 246 247 245 245 246 246 247 246 248 252 250 247 248 246 246 247 245 244 243 241 241 240 241 241 241 242 241 240 242 247 250 250 254 257 254 258
220 212 235 235 229 235 221 218 214 215 217 182 201 262 249 238 240 237 227 226 232 236 243 247 248 249 248 247 246 243 247 254 255 256 260 262 262 263 265 266 266 267 266 261 259 261 263 263 261 260 258 256 258 259 258 257 254 252 249 246 246 247 247 245 245 246 246 247 245 244 248 250 249 248 247 246 246 244 243 243 241 241 240 240 242 242 242 242 242 244 248 251 251 254 258 259 260
215 215 234 235 235 242 213 202 196 203 202 181 211 257 259 256 254 245 221 218 231 239 243 247 249 252 253 251 248 243 243 251 257 259 260 261 263 263 266 267 265 265 262 260 264 268 269 268 264 260 259 257 258 259 260 259 256 255 253 248 246 246 246 245 244 244 246 247 246 244 243 247 248 248 247 246 246 245 242 243 241 240 240 240 242 243 242 242 243 245 249 251 253 256 260 261 259
209 216 226 224 233 242 203 189 192 201 189 184 213 248 260 260 262 260 228 210 226 240 245 249 251 253 255 256 253 249 247 248 253 260 262 262 262 262 264 265 265 265 264 265 269 272 272 271 267 261 258 257 258 259 259 259 258 257 256 252 248 247 247 246 244 243 244 245 246 245 243 244 245 246 246 245 244 245 243 242 242 241 241 241 242 243 243 243 244 247 249 250 251 254 259 260 257
205 215 228 219 222 225 198 184 197 212 202 193 213 240 262 257 256 254 219 213 231 244 250 252 254 257 259 261 260 256 253 252 252 259 264 264 261 259 261 263 264 267 269 271 272 271 270 269 267 261 258 257 257 259 259 258 258 258 258 254 250 247 247 246 244 244 243 243 245 246 245 244 243 243 245 245 243 243 243 242 244 244 242 242 242 244 244 244 246 247 247 249 250 249 252 256 256
204 212 230 226 229 229 211 186 193 212 218 209 215 233 251 254 257 230 186 207 235 247 251 255 259 261 262 263 263 258 253 255 256 257 263 268 268 262 259 260 264 270 272 273 272 272 269 264 261 258 255 256 256 257 258 258 257 258 258 255 252 248 247 246 245 244 244 243 244 246 247 246 244 241 242 244 243 242 242 241 243 244 243 243 243 245 246 245 245 247 247 249 251 250 247 249 254
205 204 219 229 236 230 220 217 189 194 208 221 224 229 242 252 258 251 232 217 229 251 257 260 261 261 262 261 259 256 254 254 255 257 262 264 265 265 266 268 271 273 272 270 269 269 266 258 253 251 252 257 259 258 257 257 256 255 255 253 252 249 245 244 243 244 245 245 245 246 247 247 246 242 239 241 242 242 242 241 241 244 244 243 243 244 245 245 244 246 247 248 250 252 250 247 247
218 210 206 219 225 225 226 227 185 188 207 223 230 237 241 249 255 255 253 244 240 253 259 259 258 257 259 259 256 255 255 255 255 257 263 262 259 264 272 274 274 272 269 266 263 262 261 253 247 247 250 258 261 259 255 254 253 253 252 249 249 249 246 243 242 243 245 247 247 248 248 248 248 245 240 239 240 242 243 242 241 243 245 244 244 244 244 246 246 247 248 249 249 251 253 250 245
240 220 204 219 226 230 230 216 153 189 225 225 230 243 245 252 259 258 259 257 254 255 256 256 255 255 256 257 258 257 257 259 261 259 262 268 269 269 271 271 270 268 266 264 260 257 256 251 248 248 251 258 262 262 257 253 252 251 251 249 249 250 249 245 242 241 243 245 248 249 250 251 251 249 244 239 239 242 243 244 243 243 244 244 244 244 244 246 246 247 247 249 250 249 251 253 250
247 227 213 222 225 234 236 206 139 164 243 241 240 250 250 253 261 263 261 258 257 256 257 256 256 259 260 260 260 260 262 263 263 261 263 273 279 279 274 269 266 265 264 264 261 258 256 254 253 252 253 258 263 265 261 256 254 253 252 253 253 253 254 252 248 244 243 244 245 247 249 251 252 251 248 243 240 241 243 244 244 244 244 244 244 243 243 244 244 246 246 247 249 250 250 253 253
236 236 226 228 225 232 234 171 141 170 238 257 259 262 259 256 260 263 259 256 255 253 254 255 256 261 263 261 261 262 266 266 263 261 262 271 279 282 281 277 272 267 265 263 262 260 258 256 256 256 256 258 263 265 260 257 258 256 254 254 255 255 257 257 255 250 246 244 244 245 245 247 250 251 250 247 243 242 242 243 244 245 244 244 244 242 242 242 243 244 246 247 249 251 250 250 252
226 230 222 228 226 233 232 181 177 202 231 261 274 276 266 262 263 264 258 254 253 250 250 252 252 257 259 259 262 263 264 264 264 263 263 267 268 272 281 286 284 279 273 266 261 259 259 258 258 258 259 261 264 263 259 257 258 257 254 252 254 255 256 257 256 253 248 245 244 243 243 244 246 248 250 249 247 244 243 243 244 245 245 245 244 243 242 243 244 245 246 247 247 249 251 251 250
219 225 227 235 231 235 246 216 186 219 237 246 268 280 266 251 251 256 255 247 243 240 242 246 247 251 255 257 259 261 262 264 264 265 268 269 265 266 276 285 288 287 283 276 267 261 259 261 261 262 261 261 262 262 259 256 254 253 251 248 248 249 250 250 251 251 247 244 244 243 243 243 244 246 249 250 250 248 246 244 245 246 246 246 246 244 243 244 245 245 246 248 248 247 250 254 252
220 223 231 244 248 243 234 221 225 253 252 221 217 267 269 243 243 250 252 245 240 235 233 237 245 252 252 254 257 257 261 267 271 273 274 273 272 274 278 281 286 287 287 286 279 267 262 264 264 263 261 259 259 260 258 255 252 250 248 246 244 245 248 250 251 252 251 249 248 247 246 245 244 245 247 249 249 248 247 246 245 246 246 246 246 246 245 246 246 245 246 247 249 248 248 249 251
230 228 230 235 250 256 237 228 231 254 271 214 177 257 281 267 251 254 259 260 252 236 226 230 239 246 247 250 257 259 260 264 268 274 276 277 280 284 288 287 286 287 287 285 282 275 269 267 266 263 260 257 256 256 256 255 252 249 247 246 246 248 251 254 257 257 257 255 254 252 251 249 248 247 247 248 248 248 248 246 245 245 246 246 247 247 247 247 248 248 248 248 249 249 247 244 246
228 0 320 237 238 247 240 238 237 246 271 249 189 237 277 274 258 258 261 264 261 242 226 230 234 242 250 254 258 263 264 261 261 264 270 281 289 292 298 301 293 290 289 285 284 283 277 271 268 264 259 256 254 253 253 253 252 250 248 246 246 249 252 255 258 259 258 258 257 256 254 252 251 251 250 249 249 249 249 248 247 246 246 246 247 247 248 249 250 249 249 249 249 248 247 247 245
236 13 352 296 256 252 242 238 245 250 261 255 225 218 259 269 258 250 246 248 254 248 238 242 242 245 253 256 258 261 265 268 267 258 261 282 291 290 301 307 302 295 290 291 295 293 285 276 270 265 260 257 254 252 251 251 252 252 251 248 246 248 251 253 255 257 258 258 258 258 257 255 254 253 252 251 251 251 250 250 249 248 247 247 247 248 248 249 250 250 250 249 249 248 248 249 248
68 30 4 355 333 284 254 236 239 247 246 247 236 220 246 270 261 234 232 233 245 249 244 244 239 241 249 254 258 263 269 275 271 259 268 283 287 291 301 306 305 299 292 290 293 291 289 283 274 268 262 258 257 255 254 252 250 251 251 250 248 247 249 251 252 254 256 256 257 257 257 257 256 255 254 253 252 252 251 251 250 249 249 248 247 248 248 249 249 250 251 250 250 249 249 249 250
119 72 35 354 347 329 299 249 224 236 241 239 233 223 236 265 264 229 235 233 238 246 234 219 222 234 247 256 261 266 272 278 273 272 284 291 294 300 306 310 312 308 299 294 293 292 292 286 274 267 264 261 259 257 256 255 251 249 249 250 250 250 249 250 251 251 253 255 256 256 257 258 258 257 257 255 254 253 252 251 251 251 249 248 247 247 247 248 249 249 250 251 250 250 250 249 250
141 92 82 352 331 317 339 235 208 220 234 236 230 223 229 249 253 226 245 236 224 233 227 236 245 242 253 263 265 269 275 280 279 282 290 296 300 306 310 314 318 316 311 307 301 294 291 287 274 261 258 261 261 258 257 257 254 252 250 249 249 251 251 250 251 252 252 254 256 257 257 258 258 258 258 257 256 254 253 252 252 251 250 248 248 248 248 248 248 249 249 250 251 252 251 250 249
177 153 156 170 260 240 217 200 207 223 240 257 216 209 221 247 254 249 251 245 237 241 243 260 267 264 266 266 267 274 278 278 279 285 293 300 306 311 314 318 321 321 319 314 306 293 285 290 282 263 254 255 259 258 257 257 256 255 253 251 249 250 251 252 252 253 253 254 256 257 257 257 258 258 259 258 257 256 255 254 252 252 252 251 250 250 250 249 248 249 249 249 251 252 252 251 251
193 189 185 184 204 240 235 216 214 229 244 266 221 203 210 250 263 251 241 239 242 245 249 259 265 264 265 266 271 276 275 278 283 290 301 309 315 318 320 323 327 328 324 314 305 295 286 290 290 274 259 256 261 262 260 259 257 256 255 254 253 252 253 255 256 256 256 256 256 256 257 257 257 258 260 260 260 260 259 258 256 255 256 255 254 253 252 252 251 250 250 250 251 252 251 252 253
197 198 194 198 204 223 243 229 233 260 255 238 213 201 193 212 255 279 235 234 237 242 248 252 255 256 259 264 269 270 275 281 286 296 309 319 326 328 327 330 335 336 333 323 309 300 291 286 286 282 268 258 259 263 264 261 259 257 255 255 255 256 258 260 260 260 258 258 257 256 257 257 257 257 259 260 261 261 261 260 259 259 259 258 258 256 254 253 252 250 250 251 251 252 249 250 251
186 163 193 223 218 199 305 326 152 333 318 246 209 208 210 233 268 347 99 128 213 233 238 238 242 247 253 260 260 264 277 283 288 302 314 327 334 333 329 332 341 343 341 339 331 321 310 296 284 281 277 265 259 259 261 261 260 258 255 253 254 259 266 268 267 266 263 260 258 258 258 259 258 258 258 258 259 260 260 261 260 260 260 259 259 258 256 254 251 248 249 251 251 251 249 249 250
163 163 193 215 127 122 209 265 134 124 273 260 237 240 245 266 279 260 238 225 211 220 231 241 247 245 246 255 256 263 278 284 292 305 315 328 333 332 330 333 341 346 345 345 344 337 328 316 299 287 283 279 270 264 263 262 262 259 256 255 257 264 272 276 275 273 269 264 260 259 259 260 260 259 258 257 257 259 260 261 261 260 260 260 260 259 256 255 253 249 250 252 252 251 250 251 252
159 184 172 104 56 76 157 246 221 201 247 264 249 250 248 250 269 264 235 228 225 227 236 248 255 245 238 243 248 266 284 289 297 309 318 327 332 333 333 336 341 346 348 347 344 337 329 321 309 297 290 288 285 280 275 273 271 267 264 261 262 267 273 277 277 275 273 268 263 261 262 262 262 262 261 259 259 261 261 261 262 261 260 259 259 258 256 257 257 254 252 253 253 252 251 251 253
98 177 150 131 154 175 161 205 231 223 245 260 230 239 245 239 247 274 258 235 236 237 237 243 247 237 227 232 249 271 282 289 307 319 323 328 335 338 338 337 338 342 346 346 343 338 330 321 310 299 291 287 289 291 289 288 284 278 273 269 266 266 268 272 275 275 273 270 267 264 264 263 263 263 263 262 262 263 262 261 261 260 260 259 258 257 256 257 257 255 254 254 253 252 252 252 253
113 167 166 173 259 185 171 191 197 217 237 254 247 237 232 235 246 255 259 261 261 257 249 244 245 243 245 261 270 273 277 298 315 319 322 331 341 342 339 336 335 339 343 343 343 343 344 341 330 313 296 285 283 285 288 289 286 280 274 270 266 264 266 271 274 274 272 271 269 267 265 264 264 262 263 263 263 263 261 260 260 259 259 258 257 256 255 255 254 253 254 254 253 253 252 253 253
182 189 187 193 198 144 208 205 173 202 223 228 251 254 242 237 247 253 254 257 259 261 260 252 253 264 277 279 276 282 293 304 313 318 326 337 344 343 336 335 334 334 340 345 348 352 356 357 352 341 324 303 288 283 284 285 282 274 265 263 267 271 273 275 276 274 273 272 271 270 268 266 265 263 263 263 263 262 260 259 258 258 257 257 255 254 254 255 254 252 253 254 254 253 253 254 254
191 197 194 192 188 172 203 211 191 199 218 212 229 260 258 243 249 266 263 260 266 269 264 259 266 282 291 285 280 286 293 303 316 325 331 336 340 337 331 330 328 328 337 346 346 347 349 349 348 346 342 332 317 303 294 291 284 272 263 264 271 276 278 278 277 276 275 275 275 275 272 270 267 266 264 261 259 260 260 258 255 255 256 256 254 253 253 253 253 252 253 254 254 254 254 254 254